Date String (YYYY-MM-DD hh:mm:ss) UTC,Instrument flags,absolute air pressure of the measurement (hPa),sample flow rate (lpm),inlet stack bypass flow (lpm),air temperature of the measurement (°C),ambient temperature measured by the external sensor (°C),aerosol sample conditioner tube jacket temperature (°C),OPC LED temperature (°C),internal box temperature (°C),relative humidity of the measurement (%),span deviation,mass concentration of particles derived from Lorenz-Mie calculation of OPC scattering (μg/m³),mass concentration of particles derived from Lorenz-Mie calculation of OPC scattering (μg/m³),mass concentration of particles derived from Lorenz-Mie calculation of OPC scattering (μg/m³)
DateTimeUTC,F1_M11,P_M11,Q1_M11,Q2_M11,T1_M11,T2_M11,T3_M11,T4_M11,T5_M11,U1_M11,ZSPAN_M11,X0_M11,X2_M11,X1_M11
2024-06-17 10:00:00,SystemResetWarning,0821.1,5.00,000.00,030.3,029.6,000.0,038.6,032.0,030.9,0001.9,0018.98,0007.10,0005.72
2024-06-17 10:01:00,SystemResetWarning,0821.4,5.00,000.00,030.3,029.7,000.0,038.6,032.1,030.9,0002.3,0019.03,0007.08,0005.70
2024-06-17 10:02:00,SystemResetWarning,0821.2,5.00,000.00,030.3,029.7,000.0,038.6,032.1,030.8,0002.8,0019.13,0007.06,0005.69
2024-06-17 10:03:00,SystemResetWarning,0821.2,5.00,000.00,030.4,029.8,000.0,038.6,032.1,030.9,0001.8,0017.77,0007.04,0005.68
2024-06-17 10:04:00,SystemResetWarning,0821.3,4.99,000.00,030.4,029.8,000.0,038.7,032.1,030.9,0000.0,0017.28,0007.08,0005.68
2024-06-17 10:05:00,SystemResetWarning,0821.3,4.99,000.00,030.4,029.9,000.0,038.7,032.2,030.7,0000.0,0016.11,0006.99,0005.67
2024-06-17 10:06:00,SystemResetWarning,0821.1,5.01,000.00,030.5,029.9,000.0,038.7,032.2,030.4,0000.0,0015.95,0006.98,0005.65
2024-06-17 10:07:00,SystemResetWarning,0821.1,5.01,000.00,030.5,029.9,000.0,038.7,032.2,030.5,0000.0,0016.54,0006.92,0005.63
2024-06-17 10:08:00,SystemResetWarning,0821.2,5.01,000.00,030.5,029.9,000.0,038.7,032.3,030.4,0000.0,0016.44,0006.97,0005.61
2024-06-17 10:09:00,SystemResetWarning,0821.1,5.00,000.00,030.5,030.0,000.0,038.8,032.3,030.4,0000.0,0018.43,0006.97,0005.61
2024-06-17 10:10:00,SystemResetWarning,0821.1,5.00,000.00,030.6,030.0,000.0,038.8,032.3,030.6,0000.0,0020.35,0006.96,0005.60
2024-06-17 10:11:00,SystemResetWarning,0821.1,5.00,000.00,030.6,030.0,000.0,038.8,032.3,030.6,0000.2,0021.35,0006.98,0005.59
2024-06-17 10:12:00,SystemResetWarning,0821.1,5.00,000.00,030.6,030.1,000.0,038.8,032.3,030.5,0001.3,0022.07,0006.99,0005.59
2024-06-17 10:13:00,SystemResetWarning,0821.1,5.00,000.00,030.6,030.1,000.0,038.9,032.3,030.4,0001.8,0022.75,0007.00,0005.58
2024-06-17 10:14:00,SystemResetWarning,0821.1,5.00,000.00,030.7,030.1,000.0,038.9,032.4,030.6,0001.8,0022.44,0006.97,0005.57
2024-06-17 10:15:00,SystemResetWarning,0821.1,5.01,000.00,030.7,030.1,000.0,038.9,032.4,030.7,0002.0,0023.07,0006.92,0005.55
2024-06-17 10:16:00,SystemResetWarning,0821.1,5.00,000.00,030.7,030.1,000.0,038.9,032.4,030.8,0002.1,0024.78,0006.95,0005.53
2024-06-17 10:17:00,SystemResetWarning,0821.1,4.99,000.00,030.7,030.1,000.0,039.0,032.4,030.9,0002.2,0025.31,0006.91,0005.51
2024-06-17 10:18:00,SystemResetWarning,0821.2,4.99,000.00,030.8,030.2,000.0,039.0,032.4,030.9,0001.8,0024.97,0006.93,0005.50
2024-06-17 10:19:00,SystemResetWarning,0821.2,5.00,000.00,030.8,030.2,000.0,039.0,032.5,031.0,0002.1,0025.52,0006.90,0005.48
2024-06-17 10:20:00,SystemResetWarning,0821.2,5.00,000.00,030.8,030.2,000.0,039.0,032.5,031.0,0002.2,0023.92,0006.82,0005.46
2024-06-17 10:21:00,SystemResetWarning,0821.2,5.01,000.00,030.8,030.2,000.0,039.1,032.5,031.0,0002.4,0021.84,0006.81,0005.43
2024-06-17 10:22:00,SystemResetWarning,0821.3,5.01,000.00,030.8,030.2,000.0,039.1,032.5,030.9,0002.3,0022.09,0006.76,0005.41
2024-06-17 10:23:00,SystemResetWarning,0821.3,4.99,000.00,030.8,030.3,000.0,039.1,032.5,030.8,0001.5,0021.93,0006.73,0005.38
2024-06-17 10:24:00,SystemResetWarning,0821.3,4.99,000.00,030.8,030.3,000.0,039.1,032.5,030.8,0001.6,0021.32,0006.69,0005.36
2024-06-17 10:25:00,SystemResetWarning,0821.3,5.00,000.00,030.9,030.3,000.0,039.2,032.5,030.7,0001.2,0021.35,0006.70,0005.34
2024-06-17 10:26:00,SystemResetWarning,0821.3,5.01,000.00,030.9,030.3,000.0,039.2,032.6,030.6,0000.3,0021.32,0006.69,0005.35
2024-06-17 10:27:00,SystemResetWarning,0821.3,5.00,000.00,030.9,030.3,000.0,039.2,032.6,030.7,0000.5,0020.48,0006.67,0005.36
2024-06-17 10:28:00,SystemResetWarning,0821.3,4.99,000.00,030.9,030.3,000.0,039.2,032.7,030.7,0000.0,0019.93,0006.72,0005.36
2024-06-17 10:29:00,SystemResetWarning,0821.3,5.00,000.00,030.9,030.3,000.0,039.2,032.6,030.6,0000.0,0019.64,0006.71,0005.36
2024-06-17 10:30:00,SystemResetWarning,0821.3,5.00,000.00,031.0,030.4,000.0,039.2,032.7,030.5,0000.0,0020.20,0006.74,0005.38
2024-06-17 10:31:00,SystemResetWarning,0821.3,5.00,000.00,031.0,030.4,000.0,039.3,032.7,030.6,0000.0,0020.38,0006.75,0005.38
2024-06-17 10:32:00,SystemResetWarning,0821.3,5.00,000.00,031.0,030.4,000.0,039.3,032.7,030.6,0000.0,0020.75,0006.77,0005.37
2024-06-17 10:33:00,SystemResetWarning,0821.3,5.01,000.00,031.0,030.4,000.0,039.3,032.7,030.7,0000.0,0019.49,0006.77,0005.36
2024-06-17 10:34:00,SystemResetWarning,0821.3,5.01,000.00,031.0,030.4,000.0,039.3,032.8,030.8,0000.0,0018.88,0006.76,0005.36
2024-06-17 10:35:00,SystemResetWarning,0821.3,5.00,000.00,031.0,030.4,000.0,039.3,032.8,030.5,0000.0,0018.42,0006.80,0005.37
2024-06-17 10:36:00,SystemResetWarning,0821.3,5.00,000.00,031.1,030.4,000.0,039.4,032.8,030.5,0000.0,0018.02,0006.82,0005.38
2024-06-17 10:37:00,SystemResetWarning,0821.3,5.00,000.00,031.1,030.4,000.0,039.4,032.8,030.5,0000.8,0017.09,0006.79,0005.36
2024-06-17 10:38:00,SystemResetWarning,0821.4,4.99,000.00,031.1,030.5,000.0,039.4,032.8,030.5,0000.0,0016.46,0006.78,0005.36
2024-06-17 10:39:00,SystemResetWarning,0821.4,4.99,000.00,031.1,030.4,000.0,039.4,032.8,030.5,0000.9,0015.82,0006.73,0005.36
2024-06-17 10:40:00,SystemResetWarning,0821.3,5.00,000.00,030.9,028.6,000.0,039.4,031.9,030.8,0002.4,0015.20,0006.72,0005.37
2024-06-17 10:41:00,SystemResetWarning,0821.3,5.00,000.00,030.4,026.6,000.0,039.4,030.9,031.7,0002.5,0014.77,0006.67,0005.36
2024-06-17 10:42:00,SystemResetWarning,0821.2,5.00,000.00,030.1,026.4,000.0,039.3,030.6,032.3,0002.3,0015.12,0006.68,0005.38
2024-06-17 10:43:00,SystemResetWarning,0821.2,5.01,000.00,029.9,026.8,000.0,039.1,030.9,032.7,0002.2,0015.22,0006.68,0005.41
2024-06-17 10:44:00,SystemResetWarning,0821.2,4.98,000.00,029.9,027.3,000.0,039.0,031.1,032.8,0002.5,0016.18,0006.73,0005.44
2024-06-17 10:45:00,SystemResetWarning,0821.3,5.00,000.00,029.9,027.7,000.0,038.9,031.3,032.9,0002.6,0016.33,0006.76,0005.48
2024-06-17 10:46:00,SystemResetWarning,0821.3,5.00,000.00,029.9,028.1,000.0,038.8,031.5,032.8,0002.2,0015.80,0006.69,0005.49
2024-06-17 10:47:00,SystemResetWarning,0821.3,5.01,000.00,030.0,028.4,000.0,038.8,031.6,032.7,0001.8,0016.04,0006.69,0005.50
2024-06-17 10:48:00,SystemResetWarning,0821.3,5.00,000.00,030.0,028.6,000.0,038.7,031.6,032.6,0001.9,0016.27,0006.71,0005.55
2024-06-17 10:49:00,SystemResetWarning,0821.3,5.00,000.00,030.0,028.8,000.0,038.7,031.7,032.5,0002.3,0016.32,0006.71,0005.58
2024-06-17 10:50:00,SystemResetWarning,0821.3,4.99,000.00,030.1,029.0,000.0,038.7,031.7,032.4,0001.7,0017.01,0006.74,0005.61
2024-06-17 10:51:00,SystemResetWarning,0821.3,5.00,000.00,030.1,029.1,000.0,038.6,031.8,032.3,0000.1,0017.38,0006.79,0005.62
2024-06-17 10:52:00,SystemResetWarning,0821.3,5.00,000.00,030.1,029.2,000.0,038.6,031.9,032.1,0000.0,0017.13,0006.83,0005.64
2024-06-17 10:53:00,SystemResetWarning,0821.3,5.00,000.00,030.2,029.3,000.0,038.6,031.9,032.0,0000.0,0016.66,0006.89,0005.66
2024-06-17 10:54:00,SystemResetWarning,0821.3,5.01,000.00,030.2,029.4,000.0,038.6,031.9,031.9,0000.0,0016.58,0006.92,0005.68
2024-06-17 10:55:00,SystemResetWarning,0821.3,5.00,000.00,030.2,029.5,000.0,038.6,032.0,031.7,0000.0,0016.04,0006.91,0005.69
2024-06-17 10:56:00,SystemResetWarning,0821.3,4.99,000.00,030.3,029.6,000.0,038.6,032.0,031.5,0000.0,0016.12,0006.94,0005.69
2024-06-17 10:57:00,SystemResetWarning,0821.3,5.00,000.00,030.3,029.6,000.0,038.7,032.0,031.4,0000.3,0016.32,0007.00,0005.71
2024-06-17 10:58:00,SystemResetWarning,0821.3,5.01,000.00,030.3,029.7,000.0,038.7,032.1,031.3,0000.0,0016.36,0007.02,0005.72
2024-06-17 10:59:00,SystemResetWarning,0821.4,5.01,000.00,030.4,029.7,000.0,038.7,032.1,031.1,0000.0,0016.38,0007.05,0005.68
